Regional Weather Roundup
Issued by NWS

Home | Current Version | Previous Version | Graphics & Text | Print | Product List | Glossary On
Versions: 1 2 3 4 5 6 7 8 9 10 11 12 13 14 15 16 17 18 19 20 21 22 23 24 25 26 27 28 29 30 31 32 33 34 35 36 37 38 39 40 41 42 43 44 45 46 47 48 49 50
000
ASUS44 KMEG 082010
RWRTN
TENNESSEE HOURLY STATE WEATHER ROUNDUP
NATIONAL WEATHER SERVICE MEMPHIS TN
200 PM CST THU DEC 08 2016

TNZ002-004-019-021-049-052-054-088>092-082100-
WEST TENNESSEE

CITY           SKY/WX    TMP DP  RH WIND       PRES   REMARKS
MEMPHIS INTL   CLOUDY    38  17  42 NW10      30.49S WCI  31
NWS MEMPHIS      N/A     38 N/A N/A MISG        N/A
JACKSON        MOSUNNY   37  18  46 NW12      30.46F WCI  29
DYERSBURG      MOSUNNY   36  16  44 N9        30.49S WCI  29
PARIS          SUNNY     32  12  43 N9        30.44F WCI  24
LEXINGTON      SUNNY     36   9  32 NW10      30.42S WCI  28
$$

TNZ008-025-027-028-033-062-065-066-082100-
NORTH MIDDLE TENNESSEE

CITY           SKY/WX    TMP DP  RH WIND       PRES   REMARKS
NASHVILLE      PTSUNNY   39  11  31 NW16      30.40S WCI  30
CLARKSVILLE    SUNNY     36  12  37 NW12      30.42F WCI  28
SMYRNA         SUNNY     41  16  36 N16       30.40F
CROSSVILLE     SUNNY     37  15  40 NW10G20   30.28S WCI  30
$$

TNZ061-075-076-078-094-096-097-082100-
SOUTH MIDDLE TENNESSEE

CITY           SKY/WX    TMP DP  RH WIND       PRES   REMARKS
TULLAHOMA      SUNNY     39  14  35 NW13      30.34F WCI  32
WINCHESTER     SUNNY     39  19  45 NW10      30.35S WCI  32
MCMINNVILLE    SUNNY     37  16  41 NW9         N/A  WCI  31
SHELBYVILLE    SUNNY     41  19  42 NW13      30.37S
$$

TNZ017-018-042-046-047-082100-
NORTHEAST TENNESSEE

CITY           SKY/WX    TMP DP  RH WIND       PRES   REMARKS
TRI CITIES     MOSUNNY   43  15  32 W16       30.19S
$$

TNZ012-013-036-069-073-074-082100-
CENTRAL EAST TENNESSEE

CITY           SKY/WX    TMP DP  RH WIND       PRES   REMARKS
KNOXVILLE      PTSUNNY   43  17  35 W13       30.27F
OAK RIDGE      SUNNY     44  14  29 W6        30.29F
GATLINBURG     SUNNY     43  14  31 W10       30.26S
$$

TNZ083-085-099-082100-
SOUTHEAST TENNESSEE

CITY           SKY/WX    TMP DP  RH WIND       PRES   REMARKS
CHATTANOOGA    CLOUDY    43  17  35 NW8       30.33S
$$

SKY/WX REPORTED AS FAIR MEANS FEW OR NO CLOUDS BELOW
12 THOUSAND FEET.




USA.gov is the U.S. government's official web portal to all federal, state and local government web resources and services.